Regional Weather Roundup
Issued by NWS

Home | Current Version | Previous Version | Graphics & Text | Print | Product List | Glossary On
Versions: 1 2 3 4 5 6 7 8 9 10 11 12 13 14 15 16 17 18 19 20 21 22 23 24 25 26 27 28 29 30 31 32 33 34 35 36 37 38 39 40 41 42 43 44 45 46 47 48 49 50
000
ASUS44 KMEG 231710
RWRTN
TENNESSEE HOURLY STATE WEATHER ROUNDUP
NATIONAL WEATHER SERVICE MEMPHIS TN
1100 AM CST THU FEB 23 2017

TNZ002-004-019-021-049-052-054-088>092-231800-
WEST TENNESSEE

CITY           SKY/WX    TMP DP  RH WIND       PRES   REMARKS
MEMPHIS INTL   MOSUNNY   72  56  57 S16       29.80F
NWS MEMPHIS      N/A     71 N/A N/A MISG        N/A
JACKSON        MOSUNNY   72  58  61 S16G26    29.80F
UNION CITY     MOSUNNY   70  59  68 S10       29.78F
PARIS          PTSUNNY   64  55  72 S9        29.81F
HUNTINGDON     CLOUDY    68  59  73 S10G16    29.80F
$$

TNZ008-025-027-028-033-062-065-066-231800-
NORTH MIDDLE TENNESSEE

CITY           SKY/WX    TMP DP  RH WIND       PRES   REMARKS
NASHVILLE      PTSUNNY   68  56  65 S14       29.86F
PORTLAND       CLOUDY    66  57  72 S13       29.85F
CLARKSVILLE    CLOUDY    66  57  72 S13       29.82F
SMYRNA         MOSUNNY   70  58  65 S9G17     29.86F
COOKEVILLE     PTSUNNY   70  57  64 VRB6G15   29.86F
GALLATIN       CLOUDY    64  57  77 CALM      29.88F
CROSSVILLE     MOSUNNY   63  53  70 S8G18     29.91F
$$

TNZ061-075-076-078-094-096-097-231800-
SOUTH MIDDLE TENNESSEE

CITY           SKY/WX    TMP DP  RH WIND       PRES   REMARKS
FAYETTEVILLE   CLOUDY    68  57  68 S10       29.88S
TULLAHOMA      CLOUDY    64  55  72 S10       29.89F
WINCHESTER     CLOUDY    66  55  68 S8        29.89F
MCMINNVILLE    PTSUNNY   72  55  56 SW7       29.87F
COLUMBIA       CLOUDY    66  66 100 S8        29.84F
SHELBYVILLE    PTSUNNY   72  57  60 S12       29.88F
$$

TNZ017-018-042-046-047-231800-
NORTHEAST TENNESSEE

CITY           SKY/WX    TMP DP  RH WIND       PRES   REMARKS
TRI CITIES     MOSUNNY   63  52  67 CALM      29.92F
ELIZABETHTON   DRIZZLE   66  52  59 CALM      29.91F
$$

TNZ012-013-036-069-073-074-231800-
CENTRAL EAST TENNESSEE

CITY           SKY/WX    TMP DP  RH WIND       PRES   REMARKS
KNOXVILLE      MOSUNNY   61  55  81 N5        29.90F
OAK RIDGE      CLOUDY    57  53  86 CALM      29.93F
GATLINBURG     SUNNY     63  55  77 VRB3      29.89F
MORRISTOWN     CLOUDY    64  55  72 CALM      29.91F
JACKSBORO      CLOUDY    57  54  88 S5        29.95F
$$

TNZ083-085-099-231800-
SOUTHEAST TENNESSEE

CITY           SKY/WX    TMP DP  RH WIND       PRES   REMARKS
CHATTANOOGA    PTSUNNY   68  56  65 VRB3      29.90F
$$

SKY/WX REPORTED AS FAIR MEANS FEW OR NO CLOUDS BELOW
12 THOUSAND FEET.





USA.gov is the U.S. government's official web portal to all federal, state and local government web resources and services.